Погода в Старой Ладоге

Россия / Санкт-Петербург и Ленинградская область     60°00′04″N   32°17′32″E
темп.,
°C
ветер,
м/с
пор.,
м/с
влажн.,
%
обл.,
%
осадки,
мм/ч
давл.,
гПа
погр.,
м
25 февраля, чт
чт2500:00+1ююз512100100 2.9 1010448
03:00+2з414100100 3.2 1008500
06:00+2з41299100 0.1 1008420
09:00+1з411100100 0.1 1010423
12:00+1з411100100 0.0 1010410
15:00+2з310100100 0.0 1010373
18:00+1зюз28100100 0.2 1009247
21:00+1зюз3999100 0.7 1009280
26 февраля, пт
пт2600:00+1зюз38100100 0.1 1007269
03:00+2юз38100100 0.6 1004277
06:00+2юз413100100 1.3 999397
09:00+3зюз51599100 2.5 997594
12:00+2з614100100 1.3 997713
15:00+1сз61395100 2.2 999738
18:00+1зсз51297100 0.0 1001598
21:00+1з41196100 0.1 1002499
27 февраля, сб
сб2700:00+1сз41098100 0.3 1002402
03:00+1сз4997100 0.4 1004468
06:000ссз41096100 0.2 1005524
09:00−2ссз51196100 0.8 1007555
12:000ссз51097100 0.6 1009725
15:000ссз61196100 1.4 1012680
18:00−1ссз51190100 0.3 1014640
21:00−1ссз51191100 0.6 1017694
28 февраля, вс
вс2800:00−2ссз4108997 0.1 1018396
03:00−2ссз399198 0.1 1020488
06:00−6сз259790 0.0 1022132
09:00−7зсз269750 0.0 1023150
12:00−3сз249494 0.0 1023282
15:00−2з249197 0.0 1023339
18:00−2з2695100 0.1 1023336
21:00−3зюз2797100 0.6 1023288
1 марта, пн
пн100:00−2з269786 0.1 1024236
03:00−2зюз259885 0.1 1024128
06:00−1зюз379791 0.0 1024242
09:00−1зюз399696 0.0 1023365
12:00+1з41099100 0.0 1022535
15:00+1з41199100 0.0 1020510
18:00+2з51689100 0.0 1019600
21:00+1зюз51388100 0.0 1016409